Showing default

ORESAT0.5, 60525

Orbit data source: Space-Track

ORESAT0.5, 60525 is a payload satellite owned by Portland State (US) in SSO that was launched on Fri, 16 Aug 2024 UTC via an FALCON 9 launch vehicle from the Air Force Western Test Range (AFWTR). Payload-class satellites include a variety of spacecraft equipped with specific instruments for various scientific and technological missions. These include communications satellites like Starlink; space stations such as the ISS; scientific satellites like the Hubble; Earth observation satellites from companies like Planet Labs, Umbra, and HawkEye 360; GPS; miniature CubeSats for education and research; and military/defense satellites.

Loading next visibility...
Identifier
60525, 2024-149BK
Orbit
SSO
Country
Flag of USUS
Related business
Manufacturer
Portland State
Mission
Operational Amateur Technology
Bus & Motor
CUBESAT 1.5U, Unknown motor
Mass
2 kg wet, 2 kg dry
Launch date (UTC)
2024-08-16 (1 year ago)
Launch vehicle
FALCON 9
Launch site
Air Force Western Test Range (AFWTR)
Object type
Payload
Rocket body
Debris
Shape & HBR
Box + 1 Ant, 0.3 m
Radar Cross Section
0.040 m², Small (<0.1 m²)

Expand to show TLE details & history
Last TLE update: 21 hours ago

TLE from 21 hours ago
0 ORESAT0.5
1 60525U 24149BK  26034.21779670  .00021757  00000-0  55341-3 0  9995
2 60525  97.3817 118.6688 0006683  50.2051 309.9782 15.39596642 81826
Epoch: 2026-02-03T05:13Z
TLE epoch observation values (Epoch: 2026-02-03T05:13:37.634Z)
Latitude
-0.00007°
Longitude
-93.13989°
Altitude
447.489 km
Speed
7.645 km/s
True Right ascension
07h 54m 40s
True Declination
0° 00' 00"
Sunlit
Object was in full shadow at epoch
Visualization orbit readout
Latitude
Unknown
Longitude
Unknown
Altitude
Unknown
Speed
Unknown
Apparent Right ascension
Unknown
Apparent Declination
Unknown
Sunlit
N/A
Visualization observer readout
Local Sidereal Time
04:27:00
Azimuth
Unknown
Elevation
Unknown
Doppler factor
Unknown
Orbital elements
Apogee altitude
448.799 km
Perigee altitude
439.68 km
Semi-major axis
6,822.377 km
Eccentricity
0.00067
Inclination
97.3817°
RAAN
118.6688°
Arg. of periapsis
50.2051°
True anomaly
309.91948°
Mean anomaly
309.9782°
Eccentric anomaly
309.94885°
Mean motion
3.85159 °/min
Orbital period
93.47 mins
BSTAR
0.00055341
Loading maneuver chart data...
Computing Atmospheric mass density...
Loading historical data...
Loading historical data...
Loading historical data...
Loading historical data...
Loading historical data...
Loading historical data...
Loading historical data...

Documentation

Showing up to 5 results
|